sat.trackr.live / text

‹ back to catalog

UNKNOWN

NORAD 84406

UNKNOWN UNKNOWN UNKNOWN

§ Identity

Operator
Country
Launch date
Launch site
Launch vehicle
Mass (kg)
RCS (m²)

External: N2YO · Heavens-Above

§ Orbital elements

Epoch: 2026-09-07T05:00:36.393120Z

Period
113.60 min
Inclination
101.7417°
Eccentricity
0.0046564
Mean motion
12.67638637 rev/d
Perigee alt
1,355.4 km
Apogee alt
1,427.8 km
Semi-major
7,769.7 km
B*
1.4066e-3
RAAN
43.0804°
Arg perigee
226.1549°
Mean anomaly
312.3554°
Rev number
8,330

§ Raw data

UNKNOWN1 84406U          26250.20875455  .00000225  00000+0  14066-2 0  99902 84406 101.7417  43.0804 0046564 226.1549 312.3554 12.67638637 83304

JSON: /api/v1/satellites/84406 · /tle

For live sub-satellite position, see the globe view (requires WebGL).

§ Visibility from observer

Set your observer location to see the next 7 days of passes ≥ 10°. The values pass through the URL so the page stays shareable.

No JS? Fill the form by hand. The geolocation button needs JavaScript.